| time (UTC) | temp F | wind direction | speed MPH | gust MPH | rain 1hr in | rain 24hr in | rain mn in | humidity % | barometer mb |
| 20260904134803 | 87 | 85 | 7.0 | 11.0 | 0.00 | 1.01 | 0.00 | 43 | 1015.3 |
| 20260904134404 | 87 | 86 | 7.0 | 11.0 | 0.00 | 1.01 | 0.00 | 44 | 1015.3 |
| 20260904133604 | 87 | 86 | 6.0 | 10.0 | 0.00 | 1.01 | 0.00 | 45 | 1015.2 |
| 20260904133204 | 87 | 90 | 5.0 | 10.0 | 0.00 | 1.01 | 0.00 | 45 | 1015.4 |
| 20260904132804 | 87 | 97 | 5.0 | 10.0 | 0.00 | 1.01 | 0.00 | 45 | 1015.4 |
| 20260904132404 | 87 | 94 | 5.0 | 10.0 | 0.00 | 1.01 | 0.00 | 43 | 1015.4 |
| 20260904132004 | 87 | 90 | 5.0 | 10.0 | 0.00 | 1.01 | 0.00 | 45 | 1015.4 |
| 20260904131603 | 87 | 79 | 6.0 | 10.0 | 0.00 | 1.01 | 0.00 | 44 | 1015.5 |
| 20260904131204 | 87 | 78 | 7.0 | 10.0 | 0.00 | 1.01 | 0.00 | 44 | 1015.5 |
| 20260904130804 | 86 | 82 | 7.0 | 10.0 | 0.00 | 1.01 | 0.00 | 44 | 1015.6 |
| 20260904130403 | 86 | 88 | 6.0 | 10.0 | 0.00 | 1.01 | 0.00 | 43 | 1015.5 |
| 20260904130004 | 87 | 94 | 5.0 | 10.0 | 0.00 | 1.01 | 0.00 | 43 | 1015.5 |
| 20260904125203 | 87 | 93 | 6.0 | 10.0 | 0.00 | 1.01 | 0.00 | 41 | 1015.6 |
| 20260904123604 | 87 | 75 | 3.0 | 9.0 | 0.00 | 1.01 | 0.00 | 41 | 1015.8 |
| 20260904122804 | 87 | 93 | 4.0 | 10.0 | 0.00 | 1.01 | 0.00 | 43 | 1016.0 |
| 20260904122403 | 86 | 92 | 5.0 | 10.0 | 0.00 | 1.01 | 0.00 | 43 | 1016.1 |
| 20260904121603 | 86 | 85 | 3.0 | 9.0 | 0.00 | 1.01 | 0.00 | 44 | 1016.1 |
| 20260904121204 | 86 | 88 | 4.0 | 9.0 | 0.00 | 1.01 | 0.00 | 44 | 1016.1 |
| 20260904120804 | 86 | 92 | 4.0 | 9.0 | 0.00 | 1.01 | 0.00 | 44 | 1016.1 |
| 20260904120403 | 86 | 96 | 4.0 | 9.0 | 0.00 | 1.01 | 0.00 | 42 | 1016.2 |
| 20260904120004 | 86 | 89 | 3.0 | 8.0 | 0.00 | 1.01 | 0.00 | 42 | 1016.2 |
| 20260904115604 | 86 | 89 | 3.0 | 7.0 | 0.00 | 1.01 | 0.00 | 40 | 1016.2 |
| 20260904114803 | 86 | 98 | 4.0 | 9.0 | 0.00 | 1.01 | 0.00 | 40 | 1016.3 |
| 20260904114004 | 85 | 95 | 4.0 | 9.0 | 0.00 | 1.01 | 0.00 | 40 | 1016.5 |
| 20260904113605 | 86 | 101 | 3.0 | 7.0 | 0.00 | 1.01 | 0.00 | 40 | 1016.5 |
| 20260904113203 | 85 | 103 | 3.0 | 7.0 | 0.00 | 1.01 | 0.00 | 40 | 1016.4 |
| 20260904112804 | 85 | 98 | 2.0 | 6.0 | 0.00 | 1.01 | 0.00 | 41 | 1016.4 |
| 20260904112404 | 85 | 97 | 3.0 | 6.0 | 0.00 | 1.01 | 0.00 | 41 | 1016.4 |
| 20260904112004 | 85 | 101 | 3.0 | 7.0 | 0.00 | 2.02 | 0.00 | 41 | 1016.5 |
| 20260904111603 | 85 | 83 | 3.0 | 7.0 | 0.00 | 3.02 | 0.00 | 41 | 1016.5 |
| 20260904110803 | 84 | 84 | 5.0 | 8.0 | 0.00 | 3.02 | 0.00 | 40 | 1016.7 |
| 20260904110403 | 84 | 93 | 4.0 | 8.0 | 0.00 | 3.02 | 0.00 | 39 | 1016.6 |
| 20260904110004 | 85 | 98 | 3.0 | 7.0 | 0.00 | 3.02 | 0.00 | 40 | 1016.6 |
| 20260904105603 | 84 | 104 | 3.0 | 7.0 | 0.00 | 3.02 | 0.00 | 39 | 1016.8 |
| 20260904105204 | 85 | 99 | 3.0 | 6.0 | 0.00 | 3.02 | 0.00 | 38 | 1016.7 |
| 20260904104803 | 85 | 95 | 2.0 | 6.0 | 0.00 | 3.02 | 0.00 | 40 | 1016.8 |
| 20260904104404 | 84 | 97 | 3.0 | 6.0 | 0.00 | 3.02 | 0.00 | 39 | 1016.9 |
| 20260904104004 | 84 | 98 | 3.0 | 6.0 | 0.00 | 3.02 | 0.00 | 41 | 1017.0 |
| 20260904103604 | 84 | 94 | 3.0 | 7.0 | 0.00 | 3.02 | 0.00 | 43 | 1017.1 |
| 20260904103204 | 84 | 87 | 4.0 | 7.0 | 0.00 | 3.02 | 0.00 | 41 | 1017.1 |
| 20260904102804 | 83 | 87 | 4.0 | 7.0 | 0.00 | 3.02 | 0.00 | 43 | 1017.2 |
| 20260904102404 | 83 | 90 | 4.0 | 7.0 | 0.00 | 3.02 | 0.00 | 46 | 1017.2 |
| 20260904102004 | 83 | 100 | 3.0 | 7.0 | 0.00 | 3.02 | 0.00 | 45 | 1017.3 |
| 20260904101604 | 82 | 99 | 3.0 | 7.0 | 0.00 | 3.02 | 0.00 | 45 | 1017.5 |
| 20260904101204 | 82 | 101 | 3.0 | 7.0 | 0.00 | 3.02 | 0.00 | 46 | 1017.5 |
| 20260904100803 | 82 | 98 | 2.0 | 6.0 | 0.00 | 3.02 | 0.00 | 47 | 1017.6 |
| 20260904100404 | 82 | 106 | 2.0 | 6.0 | 0.00 | 3.02 | 0.00 | 48 | 1017.7 |
| 20260904100004 | 81 | 90 | 2.0 | 6.0 | 0.00 | 3.02 | 0.00 | 50 | 1017.7 |
| 20260904095604 | 81 | 90 | 3.0 | 5.0 | 0.00 | 3.02 | 0.00 | 51 | 1017.7 |
| 20260904095204 | 80 | 77 | 3.0 | 6.0 | 0.00 | 3.02 | 0.00 | 51 | 1017.8 |
| 20260904094804 | 81 | 72 | 2.0 | 6.0 | 0.00 | 3.02 | 0.00 | 50 | 1017.9 |
| 20260904094404 | 81 | 69 | 2.0 | 6.0 | 0.00 | 3.02 | 0.00 | 50 | 1017.9 |
| 20260904093604 | 80 | 327 | 1.0 | 2.0 | 0.00 | 3.02 | 0.00 | 49 | 1017.9 |
| 20260904093204 | 80 | 243 | 1.0 | 3.0 | 0.00 | 3.02 | 0.00 | 49 | 1017.9 |
| 20260904092804 | 79 | 135 | 2.0 | 5.0 | 0.00 | 3.02 | 0.00 | 50 | 1018.0 |
| 20260904092404 | 79 | 149 | 2.0 | 5.0 | 0.00 | 3.02 | 0.00 | 50 | 1018.0 |
| 20260904092004 | 80 | 157 | 2.0 | 5.0 | 0.00 | 3.02 | 0.00 | 49 | 1018.0 |
| 20260904091603 | 81 | 171 | 1.0 | 3.0 | 0.00 | 3.02 | 0.00 | 48 | 1018.1 |
| 20260904090803 | 79 | 352 | 1.0 | 3.0 | 0.00 | 3.02 | 0.00 | 49 | 1018.1 |
| 20260904090403 | 79 | 338 | 1.0 | 3.0 | 0.00 | 3.02 | 0.00 | 50 | 1018.2 |
| 20260904085603 | 78 | 355 | 2.0 | 4.0 | 0.00 | 3.02 | 0.00 | 51 | 1018.3 |
| 20260904084804 | 77 | 9 | 1.0 | 4.0 | 0.00 | 3.02 | 0.00 | 51 | 1018.3 |
| 20260904084005 | 76 | 346 | 1.0 | 4.0 | 0.00 | 3.02 | 0.00 | 52 | 1018.3 |
| 20260904083604 | 76 | 341 | 2.0 | 5.0 | 0.00 | 3.02 | 0.00 | 53 | 1018.4 |
| 20260904083205 | 76 | 338 | 2.0 | 5.0 | 0.00 | 3.02 | 0.00 | 54 | 1018.4 |
| 20260904082803 | 76 | 339 | 2.0 | 5.0 | 0.00 | 3.02 | 0.00 | 53 | 1018.4 |
| 20260904082404 | 76 | 353 | 1.0 | 3.0 | 0.00 | 3.02 | 0.00 | 52 | 1018.4 |
| 20260904082004 | 75 | 355 | 1.0 | 3.0 | 0.00 | 3.02 | 0.00 | 53 | 1018.3 |
| 20260904081603 | 75 | 341 | 2.0 | 4.0 | 0.00 | 3.02 | 0.00 | 54 | 1018.5 |
| 20260904081203 | 74 | 347 | 3.0 | 5.0 | 0.00 | 3.02 | 0.00 | 55 | 1018.4 |
| 20260904080403 | 74 | 8 | 2.0 | 4.0 | 0.00 | 3.02 | 0.00 | 55 | 1018.4 |
| 20260904080005 | 74 | 9 | 2.0 | 4.0 | 0.00 | 3.02 | 0.00 | 54 | 1018.4 |
| 20260904075603 | 74 | 350 | 1.0 | 3.0 | 0.00 | 3.02 | 0.00 | 56 | 1018.5 |
| 20260904074804 | 73 | 346 | 2.0 | 4.0 | 0.00 | 3.02 | 0.00 | 58 | 1018.5 |
| 20260904074004 | 72 | 348 | 2.0 | 4.0 | 0.00 | 3.02 | 0.00 | 58 | 1018.5 |
| 20260904073604 | 72 | 352 | 2.0 | 6.0 | 0.00 | 3.02 | 0.00 | 57 | 1018.5 |
| 20260904073203 | 72 | 344 | 3.0 | 6.0 | 0.00 | 3.02 | 0.00 | 58 | 1018.6 |
| 20260904072804 | 72 | 342 | 4.0 | 7.0 | 0.00 | 3.02 | 0.00 | 58 | 1018.6 |
| 20260904072404 | 71 | 342 | 4.0 | 7.0 | 0.00 | 3.02 | 0.00 | 59 | 1018.6 |
| 20260904072004 | 71 | 343 | 4.0 | 7.0 | 0.00 | 3.02 | 0.00 | 58 | 1018.6 |
| 20260904071604 | 71 | 340 | 4.0 | 7.0 | 0.00 | 3.02 | 0.00 | 60 | 1018.7 |
| 20260904070803 | 70 | 338 | 4.0 | 6.0 | 0.00 | 3.02 | 0.00 | 63 | 1018.7 |
| 20260904070403 | 69 | 336 | 3.0 | 6.0 | 0.00 | 3.02 | 0.00 | 63 | 1018.6 |
| 20260904070004 | 69 | 341 | 3.0 | 6.0 | 0.00 | 3.02 | 0.00 | 63 | 1018.6 |
| 20260904065603 | 69 | 340 | 3.0 | 5.0 | 0.00 | 3.02 | 0.00 | 63 | 1018.6 |
| 20260904065204 | 69 | 338 | 2.0 | 5.0 | 0.00 | 3.02 | 0.00 | 63 | 1018.6 |
| 20260904064804 | 69 | 339 | 3.0 | 5.0 | 0.00 | 3.02 | 0.00 | 62 | 1018.5 |
| 20260904064004 | 69 | 342 | 4.0 | 6.0 | 0.00 | 3.02 | 0.00 | 62 | 1018.7 |
| 20260904063604 | 69 | 343 | 4.0 | 6.0 | 0.00 | 3.02 | 0.00 | 63 | 1018.6 |
| 20260904063203 | 69 | 342 | 4.0 | 6.0 | 0.00 | 3.02 | 0.00 | 64 | 1018.6 |
| 20260904062804 | 69 | 336 | 3.0 | 6.0 | 0.00 | 3.02 | 0.00 | 64 | 1018.6 |
| 20260904062404 | 68 | 327 | 4.0 | 6.0 | 0.00 | 3.02 | 0.00 | 65 | 1018.5 |
| 20260904062004 | 68 | 324 | 4.0 | 6.0 | 0.00 | 3.02 | 0.00 | 64 | 1018.6 |
| 20260904061605 | 68 | 322 | 3.0 | 6.0 | 0.00 | 3.02 | 0.00 | 64 | 1018.6 |
| 20260904061204 | 68 | 326 | 2.0 | 4.0 | 0.00 | 3.02 | 0.00 | 65 | 1018.4 |
| 20260904060804 | 69 | 336 | 1.0 | 3.0 | 0.00 | 3.02 | 0.00 | 65 | 1018.4 |
| 20260904060403 | 69 | 344 | 1.0 | 3.0 | 0.00 | 3.02 | 0.00 | 65 | 1018.4 |
| 20260904060004 | 68 | 321 | 1.0 | 3.0 | 0.00 | 3.02 | 0.00 | 67 | 1018.5 |
| 20260904055603 | 68 | 293 | 1.0 | 4.0 | 0.00 | 3.02 | 0.00 | 67 | 1018.3 |
| 20260904055204 | 68 | 287 | 1.0 | 4.0 | 0.00 | 3.02 | 0.00 | 68 | 1018.3 |
| 20260904054804 | 68 | 307 | 2.0 | 5.0 | 0.00 | 3.02 | 0.00 | 68 | 1018.3 |
| 20260904054404 | 67 | 308 | 3.0 | 6.0 | 0.00 | 3.02 | 0.00 | 69 | 1018.4 |
| 20260904054005 | 67 | 309 | 3.0 | 6.0 | 0.00 | 3.02 | 0.00 | 69 | 1018.4 |
| 20260904053203 | 67 | 323 | 2.0 | 5.0 | 0.00 | 3.02 | 0.00 | 68 | 1018.4 |
| 20260904052803 | 67 | 318 | 1.0 | 4.0 | 0.00 | 3.02 | 0.00 | 68 | 1018.4 |
| 20260904052404 | 67 | 301 | 2.0 | 4.0 | 0.00 | 3.02 | 0.00 | 67 | 1018.3 |
| 20260904052004 | 67 | 298 | 2.0 | 4.0 | 0.00 | 3.02 | 0.00 | 69 | 1018.3 |
| 20260904051604 | 67 | 300 | 2.0 | 4.0 | 0.00 | 3.02 | 0.00 | 69 | 1018.1 |
| 20260904050803 | 67 | 326 | 2.0 | 5.0 | 0.00 | 3.02 | 0.00 | 69 | 1018.1 |
| 20260904050405 | 67 | 327 | 2.0 | 5.0 | 0.00 | 3.02 | 0.00 | 69 | 1018.0 |
| 20260904050004 | 67 | 313 | 2.0 | 5.0 | 0.00 | 3.02 | 0.00 | 69 | 1018.0 |
| 20260904045603 | 67 | 269 | 2.0 | 4.0 | 0.00 | 3.02 | 0.00 | 70 | 1018.0 |
| 20260904045204 | 66 | 239 | 1.0 | 4.0 | 0.00 | 3.02 | 0.00 | 71 | 1018.0 |
| 20260904044404 | 67 | 296 | 1.0 | 3.0 | 0.00 | 3.02 | 0.00 | 72 | 1018.0 |
| 20260904044004 | 67 | 289 | 1.0 | 3.0 | 0.00 | 3.02 | 0.00 | 72 | 1018.0 |
| 20260904043204 | 67 | 252 | 2.0 | 4.0 | 0.00 | 3.02 | 0.00 | 70 | 1017.8 |
| 20260904042804 | 67 | 252 | 1.0 | 4.0 | 0.00 | 3.02 | 0.00 | 71 | 1017.8 |
| 20260904042403 | 67 | 248 | 1.0 | 4.0 | 0.00 | 3.02 | 0.00 | 71 | 1017.9 |
| 20260904042004 | 67 | 275 | 1.0 | 3.0 | 0.00 | 3.02 | 0.00 | 72 | 1018.0 |
| 20260904041603 | 67 | 302 | 2.0 | 4.0 | 0.00 | 3.02 | 0.00 | 70 | 1017.9 |
| 20260904040804 | 67 | 250 | 2.0 | 5.0 | 0.00 | 3.02 | 0.00 | 71 | 1017.9 |
| 20260904040004 | 67 | 249 | 2.0 | 4.0 | 0.00 | 3.02 | 0.00 | 71 | 1017.9 |
| 20260904035603 | 67 | 249 | 2.0 | 4.0 | 0.00 | 3.02 | 0.00 | 70 | 1017.8 |
| 20260904035204 | 67 | 248 | 2.0 | 4.0 | 0.00 | 3.02 | 0.00 | 71 | 1017.9 |
| 20260904034804 | 67 | 231 | 3.0 | 6.0 | 0.00 | 3.02 | 0.00 | 72 | 1017.9 |
| 20260904034404 | 67 | 231 | 3.0 | 6.0 | 0.00 | 3.02 | 0.00 | 71 | 1017.9 |
| 20260904034004 | 67 | 231 | 3.0 | 6.0 | 0.00 | 3.02 | 0.00 | 71 | 1018.0 |
| 20260904033604 | 67 | 243 | 2.0 | 5.0 | 0.00 | 3.02 | 0.00 | 70 | 1018.1 |
| 20260904033204 | 67 | 245 | 2.0 | 5.0 | 0.00 | 3.02 | 0.00 | 71 | 1018.1 |
| 20260904032804 | 67 | 246 | 2.0 | 4.0 | 0.00 | 3.02 | 0.00 | 71 | 1018.1 |
| 20260904032404 | 67 | 240 | 2.0 | 4.0 | 0.00 | 3.02 | 0.00 | 72 | 1018.0 |
| 20260904032004 | 67 | 238 | 2.0 | 4.0 | 0.00 | 3.02 | 0.00 | 73 | 1017.9 |
| 20260904031604 | 67 | 239 | 3.0 | 4.0 | 0.00 | 3.02 | 0.00 | 72 | 1017.9 |
| 20260904031203 | 67 | 245 | 2.0 | 4.0 | 0.00 | 3.02 | 0.00 | 71 | 1017.9 |
| 20260904030803 | 67 | 256 | 2.0 | 4.0 | 0.00 | 3.02 | 0.00 | 71 | 1017.8 |
| 20260904030404 | 68 | 286 | 1.0 | 3.0 | 0.00 | 3.02 | 0.00 | 71 | 1017.8 |
| 20260904030005 | 69 | 316 | 1.0 | 2.0 | 0.00 | 3.02 | 0.00 | 70 | 1017.8 |
| 20260904025604 | 69 | 308 | 0.0 | 2.0 | 0.00 | 3.02 | 0.00 | 69 | 1017.8 |
| 20260904025204 | 68 | 305 | 1.0 | 4.0 | 0.00 | 3.02 | 0.00 | 70 | 1017.8 |
| 20260904024803 | 69 | 320 | 2.0 | 5.0 | 0.00 | 3.02 | 0.00 | 69 | 1017.8 |
| 20260904024404 | 69 | 326 | 3.0 | 5.0 | 0.00 | 3.02 | 0.00 | 68 | 1017.9 |
| 20260904024004 | 69 | 329 | 2.0 | 5.0 | 0.00 | 3.02 | 0.00 | 68 | 1017.9 |
| 20260904023603 | 69 | 331 | 2.0 | 7.0 | 0.00 | 3.02 | 0.00 | 68 | 1017.9 |
| 20260904023205 | 69 | 304 | 2.0 | 7.0 | 0.00 | 3.02 | 0.00 | 68 | 1017.8 |
| 20260904022804 | 68 | 237 | 3.0 | 5.0 | 0.00 | 3.02 | 0.00 | 71 | 1018.0 |
| 20260904022403 | 68 | 229 | 3.0 | 5.0 | 0.00 | 3.02 | 0.00 | 72 | 1018.0 |
| 20260904022004 | 67 | 227 | 4.0 | 5.0 | 0.00 | 3.02 | 0.00 | 72 | 1017.9 |
| 20260904021604 | 68 | 227 | 4.0 | 6.0 | 0.00 | 3.02 | 0.00 | 72 | 1017.9 |
| 20260904021204 | 68 | 225 | 4.0 | 6.0 | 0.00 | 3.02 | 0.00 | 71 | 1017.9 |
| 20260904020803 | 68 | 223 | 4.0 | 6.0 | 0.00 | 3.02 | 0.00 | 71 | 1017.9 |
| 20260904020403 | 68 | 231 | 3.0 | 5.0 | 0.00 | 3.02 | 0.00 | 72 | 1017.9 |
| 20260904020004 | 68 | 240 | 3.0 | 5.0 | 0.00 | 3.02 | 0.00 | 71 | 1017.8 |
| 20260904015603 | 69 | 255 | 2.0 | 4.0 | 0.00 | 3.02 | 0.00 | 70 | 1017.8 |
| 20260904015204 | 69 | 256 | 2.0 | 4.0 | 0.00 | 3.02 | 0.00 | 70 | 1017.8 |
| 20260904014803 | 69 | 269 | 1.0 | 3.0 | 0.00 | 3.02 | 0.00 | 71 | 1017.7 |
| 20260904014403 | 69 | 300 | 1.0 | 3.0 | 0.00 | 3.02 | 0.00 | 70 | 1017.6 |
| 20260904013203 | 70 | 197 | 1.0 | 3.0 | 0.00 | 3.02 | 0.00 | 67 | 1017.5 |
| 20260904012804 | 70 | 198 | 1.0 | 3.0 | 0.00 | 3.02 | 0.00 | 67 | 1017.6 |
| 20260904012403 | 70 | 195 | 1.0 | 3.0 | 0.00 | 3.02 | 0.00 | 68 | 1017.6 |
| 20260904012004 | 70 | 49 | 0.0 | 2.0 | 0.00 | 3.02 | 0.00 | 68 | 1017.6 |
| 20260904011603 | 71 | 106 | 0.0 | 2.0 | 0.00 | 3.02 | 0.00 | 67 | 1017.6 |
| 20260904010404 | 70 | 209 | 1.0 | 3.0 | 0.00 | 3.02 | 0.00 | 66 | 1017.6 |
| 20260904010004 | 70 | 241 | 1.0 | 3.0 | 0.00 | 3.02 | 0.00 | 68 | 1017.7 |
| 20260904005604 | 70 | 323 | 1.0 | 3.0 | 0.00 | 3.02 | 0.00 | 69 | 1017.6 |
| 20260904005203 | 70 | 314 | 1.0 | 3.0 | 0.00 | 3.02 | 0.00 | 70 | 1017.6 |
| 20260904004403 | 70 | 223 | 1.0 | 3.0 | 0.00 | 3.02 | 0.00 | 70 | 1017.6 |
| 20260904004004 | 70 | 218 | 2.0 | 3.0 | 0.00 | 3.02 | 0.00 | 70 | 1017.7 |
| 20260904003603 | 69 | 219 | 2.0 | 3.0 | 0.00 | 3.02 | 0.00 | 70 | 1017.7 |
| 20260904002803 | 70 | 216 | 1.0 | 3.0 | 0.00 | 3.02 | 0.00 | 70 | 1017.8 |
| 20260904002403 | 71 | 213 | 1.0 | 4.0 | 0.00 | 3.02 | 0.00 | 69 | 1017.9 |
| 20260904002004 | 71 | 222 | 2.0 | 4.0 | 0.00 | 3.02 | 0.00 | 68 | 1017.9 |
| 20260904001604 | 70 | 238 | 2.0 | 4.0 | 0.00 | 3.02 | 0.00 | 69 | 1017.9 |
| 20260904000803 | 71 | 294 | 2.0 | 4.0 | 0.00 | 3.02 | 0.00 | 69 | 1018.0 |
| 20260904000004 | 71 | 313 | 1.0 | 3.0 | 0.00 | 3.02 | 0.00 | 69 | 1018.0 |
| 20260903235604 | 71 | 329 | 1.0 | 3.0 | 0.00 | 3.02 | 0.00 | 71 | 1018.0 |
| 20260903234403 | 71 | 215 | 2.0 | 4.0 | 0.00 | 3.02 | 0.00 | 69 | 1018.1 |
| 20260903233603 | 71 | 280 | 1.0 | 3.0 | 0.00 | 3.02 | 0.00 | 69 | 1018.0 |
| 20260903232803 | 71 | 287 | 2.0 | 4.0 | 0.00 | 3.02 | 0.00 | 72 | 1018.0 |
| 20260903232004 | 71 | 254 | 1.0 | 3.0 | 0.00 | 3.02 | 0.00 | 71 | 1018.0 |
| 20260903231603 | 71 | 227 | 2.0 | 4.0 | 0.00 | 3.02 | 0.00 | 70 | 1018.0 |
| 20260903231204 | 71 | 223 | 1.0 | 4.0 | 0.00 | 3.02 | 0.00 | 68 | 1018.0 |
| 20260903230803 | 72 | 173 | 0.0 | 3.0 | 0.00 | 3.02 | 0.00 | 67 | 1017.9 |
| 20260903230403 | 72 | 168 | 1.0 | 2.0 | 0.00 | 3.02 | 0.00 | 67 | 1018.0 |
| 20260903230004 | 72 | 197 | 1.0 | 3.0 | 0.00 | 3.02 | 0.00 | 68 | 1017.9 |
| 20260903225603 | 72 | 202 | 1.0 | 3.0 | 0.00 | 3.02 | 0.00 | 67 | 1017.9 |
| 20260903225204 | 73 | 283 | 1.0 | 4.0 | 0.00 | 3.02 | 0.00 | 66 | 1017.7 |
| 20260903224804 | 73 | 324 | 1.0 | 4.0 | 0.00 | 3.02 | 0.00 | 65 | 1017.8 |
| 20260903223603 | 73 | 193 | 0.0 | 2.0 | 0.00 | 3.02 | 0.00 | 68 | 1017.8 |
| 20260903223204 | 73 | 244 | 0.0 | 2.0 | 0.00 | 3.02 | 0.00 | 68 | 1017.9 |
| 20260903222404 | 72 | 258 | 0.0 | 2.0 | 0.00 | 3.02 | 0.00 | 69 | 1017.8 |
| 20260903222004 | 72 | 247 | 1.0 | 2.0 | 0.00 | 3.02 | 0.00 | 69 | 1017.8 |
| 20260903221604 | 72 | 260 | 1.0 | 2.0 | 0.00 | 3.02 | 0.00 | 69 | 1017.8 |
| 20260903220804 | 73 | 249 | 2.0 | 4.0 | 0.00 | 3.02 | 0.00 | 68 | 1017.8 |
| 20260903220405 | 72 | 233 | 3.0 | 5.0 | 0.00 | 3.02 | 0.00 | 71 | 1017.9 |
| 20260903220006 | 72 | 232 | 3.0 | 5.0 | 0.00 | 3.02 | 0.00 | 72 | 1017.9 |
| 20260903215603 | 72 | 244 | 3.0 | 5.0 | 0.00 | 3.02 | 3.02 | 72 | 1017.8 |
| 20260903215204 | 72 | 254 | 2.0 | 5.0 | 0.00 | 3.02 | 3.02 | 71 | 1017.9 |
| 20260903214803 | 72 | 229 | 2.0 | 4.0 | 0.00 | 3.02 | 3.02 | 71 | 1017.8 |
| 20260903214403 | 72 | 230 | 2.0 | 4.0 | 0.00 | 3.02 | 3.02 | 71 | 1017.8 |
| 20260903214004 | 72 | 227 | 1.0 | 4.0 | 0.00 | 3.02 | 3.02 | 70 | 1017.7 |
| 20260903212803 | 73 | 229 | 1.0 | 3.0 | 0.00 | 3.02 | 3.02 | 70 | 1017.7 |
| 20260903212403 | 73 | 236 | 1.0 | 3.0 | 0.00 | 3.02 | 3.02 | 70 | 1017.7 |
| 20260903212004 | 73 | 233 | 1.0 | 3.0 | 0.00 | 3.02 | 3.02 | 70 | 1017.7 |
| 20260903211604 | 73 | 237 | 1.0 | 3.0 | 0.00 | 3.02 | 3.02 | 69 | 1017.6 |
| 20260903211203 | 74 | 233 | 1.0 | 4.0 | 0.00 | 3.02 | 3.02 | 69 | 1017.6 |
| 20260903210803 | 74 | 235 | 1.0 | 4.0 | 0.00 | 3.02 | 3.02 | 69 | 1017.6 |
| 20260903210404 | 74 | 234 | 1.0 | 4.0 | 0.00 | 3.02 | 3.02 | 68 | 1017.5 |
| 20260903210003 | 74 | 229 | 2.0 | 5.0 | 0.00 | 3.02 | 3.02 | 68 | 1017.6 |
| 20260903205604 | 74 | 227 | 2.0 | 5.0 | 0.00 | 3.02 | 3.02 | 69 | 1017.7 |
| 20260903205205 | 74 | 221 | 2.0 | 5.0 | 0.00 | 3.02 | 3.02 | 68 | 1017.6 |
| 20260903204404 | 74 | 228 | 2.0 | 4.0 | 0.00 | 3.02 | 3.02 | 68 | 1017.7 |
| 20260903204004 | 74 | 222 | 1.0 | 3.0 | 0.00 | 3.02 | 3.02 | 68 | 1017.6 |
| 20260903203604 | 74 | 214 | 1.0 | 3.0 | 0.00 | 3.02 | 3.02 | 67 | 1017.5 |
| 20260903203203 | 75 | 216 | 1.0 | 3.0 | 0.00 | 3.02 | 3.02 | 66 | 1017.4 |
| 20260903202804 | 75 | 228 | 1.0 | 3.0 | 0.00 | 3.02 | 3.02 | 66 | 1017.4 |
| 20260903201603 | 76 | 233 | 1.0 | 3.0 | 0.00 | 3.02 | 3.02 | 63 | 1017.3 |
| 20260903201204 | 75 | 246 | 1.0 | 3.0 | 0.00 | 3.02 | 3.02 | 64 | 1017.3 |
| 20260903200804 | 76 | 268 | 1.0 | 2.0 | 0.00 | 3.02 | 3.02 | 65 | 1017.2 |
| 20260903200404 | 76 | 240 | 1.0 | 3.0 | 0.00 | 3.02 | 3.02 | 64 | 1017.2 |
| 20260903200003 | 75 | 229 | 1.0 | 4.0 | 0.00 | 3.02 | 3.02 | 65 | 1017.2 |
| 20260903195604 | 75 | 224 | 2.0 | 4.0 | 0.00 | 3.02 | 3.02 | 66 | 1017.2 |
| 20260903195203 | 75 | 223 | 2.0 | 4.0 | 0.00 | 3.02 | 3.02 | 65 | 1017.2 |
| 20260903194804 | 76 | 217 | 2.0 | 4.0 | 0.00 | 3.02 | 3.02 | 65 | 1017.2 |
| 20260903194403 | 76 | 218 | 2.0 | 4.0 | 0.00 | 3.02 | 3.02 | 64 | 1017.0 |
| 20260903194004 | 76 | 222 | 3.0 | 6.0 | 0.00 | 3.02 | 3.02 | 64 | 1017.0 |
| 20260903193603 | 76 | 230 | 2.0 | 6.0 | 0.00 | 3.02 | 3.02 | 65 | 1017.0 |
| 20260903193204 | 76 | 250 | 2.0 | 6.0 | 0.00 | 3.02 | 3.02 | 64 | 1017.0 |
| 20260903192803 | 76 | 274 | 1.0 | 6.0 | 0.00 | 3.02 | 3.02 | 64 | 1016.9 |
| 20260903192403 | 77 | 255 | 2.0 | 6.0 | 0.00 | 3.02 | 3.02 | 63 | 1016.9 |
| 20260903192004 | 76 | 260 | 1.0 | 6.0 | 0.00 | 3.02 | 3.02 | 64 | 1016.9 |
| 20260903191605 | 76 | 261 | 1.0 | 5.0 | 0.00 | 3.02 | 3.02 | 65 | 1016.8 |
| 20260903190405 | 76 | 228 | 2.0 | 5.0 | 0.00 | 3.02 | 3.02 | 64 | 1016.6 |
| 20260903185605 | 76 | 292 | 2.0 | 4.0 | 0.00 | 3.02 | 3.02 | 64 | 1016.6 |
| 20260903185204 | 76 | 278 | 2.0 | 5.0 | 0.00 | 3.02 | 3.02 | 64 | 1016.5 |
| 20260903184404 | 77 | 227 | 4.0 | 6.0 | 0.00 | 3.02 | 3.02 | 63 | 1016.3 |
| 20260903184005 | 77 | 231 | 3.0 | 6.0 | 0.00 | 3.02 | 3.02 | 64 | 1016.2 |
| 20260903183604 | 77 | 244 | 2.0 | 6.0 | 0.00 | 3.02 | 3.02 | 63 | 1016.2 |
| 20260903183205 | 77 | 247 | 3.0 | 6.0 | 0.00 | 3.02 | 3.02 | 63 | 1016.2 |
| 20260903182805 | 77 | 251 | 3.0 | 6.0 | 0.00 | 3.02 | 3.02 | 63 | 1016.1 |
| 20260903182404 | 78 | 250 | 3.0 | 6.0 | 0.00 | 3.02 | 3.02 | 62 | 1016.0 |
| 20260903182005 | 78 | 241 | 3.0 | 6.0 | 1.00 | 3.02 | 3.02 | 62 | 1016.1 |
| 20260903181604 | 79 | 228 | 4.0 | 8.0 | 1.00 | 3.02 | 3.02 | 61 | 1015.9 |
| 20260903180805 | 79 | 223 | 4.0 | 8.0 | 1.01 | 3.02 | 3.02 | 60 | 1015.8 |
| 20260903180404 | 79 | 222 | 3.0 | 6.0 | 1.01 | 3.02 | 3.02 | 60 | 1015.6 |
| 20260903180005 | 79 | 218 | 2.0 | 5.0 | 1.01 | 3.02 | 3.02 | 60 | 1015.6 |
| 20260903175204 | 80 | 203 | 2.0 | 5.0 | 1.01 | 3.02 | 3.02 | 58 | 1015.7 |
| 20260903174805 | 80 | 201 | 3.0 | 7.0 | 1.01 | 3.02 | 3.02 | 58 | 1015.6 |
| 20260903174405 | 80 | 211 | 3.0 | 7.0 | 1.01 | 3.02 | 3.02 | 58 | 1015.6 |
| 20260903174005 | 80 | 217 | 3.0 | 6.0 | 1.01 | 3.02 | 3.02 | 58 | 1015.6 |
| 20260903173605 | 80 | 220 | 3.0 | 6.0 | 1.01 | 3.02 | 3.02 | 57 | 1015.4 |
| 20260903173205 | 81 | 224 | 3.0 | 6.0 | 1.01 | 3.02 | 3.02 | 57 | 1015.4 |
| 20260903172804 | 81 | 232 | 2.0 | 5.0 | 1.01 | 3.02 | 3.02 | 58 | 1015.3 |
| 20260903172406 | 81 | 232 | 0.0 | 5.0 | 1.01 | 3.02 | 3.02 | 56 | 1015.4 |
| 20260903172005 | 81 | 217 | 1.0 | 4.0 | 0.01 | 2.02 | 2.02 | 61 | 1015.4 |
| 20260903171605 | 81 | 209 | 2.0 | 5.0 | 0.01 | 2.02 | 2.02 | 60 | 1015.5 |
| 20260903171205 | 82 | 208 | 2.0 | 5.0 | 0.00 | 2.02 | 2.02 | 53 | 1015.3 |
| 20260903170804 | 82 | 209 | 2.0 | 4.0 | 0.00 | 2.02 | 2.02 | 54 | 1015.4 |
| 20260903170004 | 82 | 226 | 2.0 | 4.0 | 0.00 | 2.02 | 2.02 | 53 | 1015.5 |
| 20260903165605 | 83 | 225 | 1.0 | 4.0 | 0.00 | 2.02 | 2.02 | 53 | 1015.3 |
| 20260903165205 | 83 | 223 | 1.0 | 3.0 | 0.00 | 2.02 | 2.02 | 52 | 1015.3 |
| 20260903164806 | 83 | 250 | 1.0 | 3.0 | 0.00 | 2.02 | 2.02 | 52 | 1015.3 |
| 20260903164004 | 82 | 310 | 1.0 | 4.0 | 0.00 | 2.02 | 2.02 | 50 | 1015.3 |
| 20260903163605 | 82 | 314 | 1.0 | 4.0 | 0.00 | 2.02 | 2.02 | 51 | 1015.2 |
| 20260903163205 | 83 | 306 | 1.0 | 4.0 | 0.00 | 2.02 | 2.02 | 50 | 1015.2 |
| 20260903162806 | 83 | 306 | 1.0 | 4.0 | 0.00 | 2.02 | 2.02 | 50 | 1015.2 |
| 20260903162404 | 83 | 315 | 2.0 | 4.0 | 0.00 | 2.02 | 2.02 | 50 | 1015.2 |
| 20260903162005 | 83 | 319 | 3.0 | 4.0 | 0.00 | 2.02 | 2.02 | 49 | 1015.2 |
| 20260903161604 | 83 | 313 | 2.0 | 4.0 | 0.00 | 2.02 | 2.02 | 48 | 1015.2 |
| 20260903160804 | 84 | 322 | 3.0 | 5.0 | 0.00 | 2.02 | 2.02 | 47 | 1015.1 |
| 20260903160405 | 84 | 322 | 4.0 | 6.0 | 0.00 | 2.02 | 2.02 | 47 | 1015.2 |
| 20260903160005 | 85 | 313 | 3.0 | 6.0 | 0.00 | 2.02 | 2.02 | 46 | 1015.0 |
| 20260903155604 | 86 | 293 | 2.0 | 6.0 | 0.00 | 2.02 | 2.02 | 44 | 1015.1 |
| 20260903155205 | 87 | 132 | 1.0 | 4.0 | 0.00 | 2.02 | 2.02 | 43 | 1015.0 |
| 20260903154804 | 87 | 103 | 2.0 | 6.0 | 0.00 | 2.02 | 2.02 | 42 | 1015.0 |
| 20260903154405 | 86 | 112 | 3.0 | 6.0 | 0.00 | 2.02 | 2.02 | 42 | 1015.1 |
| 20260903154004 | 87 | 100 | 3.0 | 8.0 | 0.00 | 2.02 | 2.02 | 41 | 1015.0 |
| 20260903153605 | 87 | 94 | 3.0 | 8.0 | 0.00 | 2.02 | 2.02 | 42 | 1015.1 |
| 20260903153204 | 86 | 90 | 4.0 | 8.0 | 0.00 | 2.02 | 2.02 | 41 | 1015.1 |
| 20260903152805 | 86 | 90 | 3.0 | 6.0 | 0.00 | 2.02 | 2.02 | 41 | 1015.2 |
| 20260903152005 | 87 | 84 | 4.0 | 8.0 | 0.00 | 2.02 | 2.02 | 42 | 1015.1 |
| 20260903151205 | 87 | 127 | 3.0 | 8.0 | 0.00 | 2.02 | 2.02 | 41 | 1015.3 |
| 20260903150805 | 86 | 145 | 2.0 | 5.0 | 0.00 | 2.02 | 2.02 | 43 | 1015.2 |
| 20260903150405 | 86 | 103 | 2.0 | 7.0 | 0.00 | 2.02 | 2.02 | 43 | 1015.1 |
| 20260903150005 | 87 | 84 | 3.0 | 8.0 | 0.00 | 2.02 | 2.02 | 43 | 1015.2 |
| 20260903145605 | 86 | 95 | 4.0 | 9.0 | 0.00 | 2.02 | 2.02 | 42 | 1015.3 |
| 20260903145205 | 86 | 96 | 4.0 | 9.0 | 0.00 | 2.02 | 2.02 | 43 | 1015.3 |
| 20260903144804 | 86 | 94 | 3.0 | 9.0 | 0.00 | 2.02 | 2.02 | 43 | 1015.4 |
| 20260903144005 | 86 | 101 | 3.0 | 7.0 | 0.00 | 2.02 | 2.02 | 43 | 1015.2 |
| 20260903143205 | 87 | 90 | 3.0 | 7.0 | 0.00 | 2.02 | 2.02 | 42 | 1015.3 |
| 20260903142804 | 86 | 90 | 4.0 | 8.0 | 0.00 | 2.02 | 2.02 | 42 | 1015.4 |
| 20260903142405 | 86 | 88 | 4.0 | 8.0 | 0.00 | 2.02 | 2.02 | 43 | 1015.5 |
| 20260903142005 | 86 | 93 | 4.0 | 8.0 | 0.00 | 2.02 | 2.02 | 43 | 1015.5 |
| 20260903141605 | 86 | 100 | 3.0 | 8.0 | 0.00 | 2.02 | 2.02 | 42 | 1015.4 |
| 20260903141205 | 86 | 98 | 3.0 | 8.0 | 0.00 | 2.02 | 2.02 | 41 | 1015.4 |
| 20260903140804 | 86 | 96 | 3.0 | 7.0 | 0.00 | 2.02 | 2.02 | 41 | 1015.6 |
| 20260903140005 | 86 | 90 | 3.0 | 7.0 | 0.00 | 2.02 | 2.02 | 40 | 1015.6 |
| 20260903135604 | 87 | 75 | 2.0 | 7.0 | 0.00 | 2.02 | 2.02 | 40 | 1015.6 |
| 20260903135204 | 87 | 111 | 3.0 | 7.0 | 0.00 | 2.02 | 2.02 | 39 | 1015.7 |